Flag for Germany Weather past 2 weeks in Georgsmarienhütte, Lower Saxony, Germany

Now
66 °F

Clear.


Feels Like: 66 °F
Forecast: 55 / 75 °F
Wind: 6 mph from East

Location: Muenster / Osnabrueck

Current Time: Sep 17, 2014 at 10:33:21 PM

Latest Report: Sep 17, 2014 at 9:50 PM


Visibility: 10 mi

Pressure: 29.89 "Hg

Humidity: 78%

Dew point: 59 °F

Location of GeorgsmarienhütteLocation

Historic Weather in Georgsmarienhütte — Graph

°F

Georgsmarienhütte temperature yesterday

Maximum temperature yesterday: 77 °F (at 2:20 PM)
Minimum temperature yesterday: 57 °F (at 6:50 AM)
Average temperature yesterday: 67 °F

Past Weeks' High & Low Weather Summary

 TemperatureHumidityPressure
High77 °F (Sep 4, 4:20 PM)100% (Sep 2, 10:20 PM)30.27 "Hg (Sep 2, 10:20 PM)
Low46 °F (Sep 9, 6:20 AM)49% (Sep 8, 5:20 PM)29.86 "Hg (Sep 6, 3:50 PM)
Average62 °F83%30.07 "Hg
* Reported Sep 2 9:20 PM — Sep 17 9:20 PM, Georgsmarienhütte, Weather by CustomWeather, © 2014

Note: Actual official high and low records may vary slightly from our data, if they occured in-between our weather recording intervals... More about our weather records

Advertising

Georgsmarienhütte weather history for previous 24 hours

 ConditionsComfort  
Time TempWeatherWind HumidityBarometerVisibility
9:20 PM
Sep 17
66 °FClear.6 mph78%29.89 "Hg10 mi
8:50 PM68 °FClear.6 mph73%29.89 "Hg10 mi
8:20 PM68 °FSunny.5 mph73%29.89 "Hg10 mi
7:50 PM68 °FSunny.5 mph69%29.89 "Hg10 mi
7:20 PM72 °FScattered clouds.5 mph65%29.89 "HgN/A
6:50 PM73 °FScattered clouds.6 mph57%29.89 "HgN/A
6:20 PM73 °FPassing clouds.9 mph57%29.89 "HgN/A
5:50 PM77 °FSunny.8 mph51%29.89 "Hg10 mi
5:20 PM75 °FSunny.9 mph54%29.89 "Hg10 mi
4:50 PM75 °FScattered clouds.9 mph54%29.89 "HgN/A
4:20 PM75 °FScattered clouds.10 mph57%29.89 "HgN/A
3:50 PM75 °FScattered clouds.8 mph57%29.89 "HgN/A
3:20 PM77 °FPassing clouds.8 mph54%29.89 "HgN/A
2:50 PM77 °FPassing clouds.9 mph54%29.89 "HgN/A
2:20 PM75 °FPassing clouds.7 mph57%29.89 "HgN/A
1:50 PM75 °FPassing clouds.8 mph57%29.92 "HgN/A
1:20 PM75 °FSunny.7 mph57%29.92 "Hg10 mi
12:50 PM73 °FSunny.8 mph61%29.92 "Hg10 mi
12:20 PM73 °FSunny.7 mph61%29.92 "Hg10 mi
11:50 AM72 °FSunny.7 mph65%29.92 "Hg10 mi
11:20 AM70 °FSunny.7 mph69%29.92 "Hg10 mi
10:50 AM70 °FSunny.8 mph69%29.95 "Hg10 mi
10:20 AM68 °FSunny.7 mph73%29.95 "Hg10 mi
9:50 AM66 °FSunny.8 mph78%29.95 "Hg10 mi
9:20 AM64 °FSunny.7 mph83%29.95 "Hg10 mi
8:50 AM61 °FSunny.3 mph88%29.95 "Hg10 mi
8:20 AM57 °FFog.3 mph94%29.95 "HgN/A
7:50 AM55 °FCool.3 mph100%29.95 "HgN/A
7:20 AM55 °FSleet. Overcast.5 mph100%29.95 "HgN/A
6:50 AM54 °FSleet. Overcast.3 mph100%29.95 "HgN/A
6:20 AM55 °FFog.2 mph100%29.95 "HgN/A
5:50 AM57 °FClear.2 mph100%29.95 "Hg10 mi
5:20 AM57 °FClear.3 mph94%29.95 "Hg10 mi
4:50 AM61 °FClear.3 mph83%29.95 "Hg10 mi
4:20 AM63 °FClear.3 mph83%29.95 "Hg10 mi
3:50 AM61 °FClear.3 mph88%29.95 "Hg10 mi
3:20 AM63 °FClear.3 mph83%29.95 "Hg10 mi
2:50 AM63 °FClear.3 mph83%29.95 "Hg10 mi
2:20 AM63 °FClear.5 mph83%29.98 "Hg10 mi
1:50 AM63 °FClear.3 mph88%29.98 "Hg10 mi
1:20 AM59 °FClear.5 mph94%29.98 "Hg10 mi
12:20 AM61 °FClear.No wind88%29.98 "Hg10 mi
11:50 PM
Sep 16
61 °FClear.2 mph88%29.98 "Hg10 mi
11:20 PM63 °FClear.2 mph83%29.98 "Hg10 mi
10:50 PM66 °FClear.5 mph73%29.98 "Hg10 mi
10:20 PM64 °FClear.5 mph78%29.98 "Hg10 mi
Weather by CustomWeather, © 2014

See weather overviewHow to use our weather pages